Location: Altavilla Irpina
(41.0000°N, 14.7833°E)
Time: 19:47:56
(UTC+00:00)

Timation 1 Rocket - Pass Details

Date: 19 May 2025
Orbit: 895 x 909 km, 70.0° (Epoch: 20 June)

Event Time Altitude Azimuth Distance (km) Brightness Sun altitude
Exits shadow 21:47:14 51° 232° (SW) 1,120 4.6 -26.9°
Maximum altitude 21:48:42 71° 297° (WNW) 952 4.4 -27.0°
Drops below altitude 10° 21:54:41 10° 21° (NNE) 2,591 7.4 -27.3°
Sets 21:57:13 0° 24° (NNE) 3,538 8.1 -27.4°
